Vertical_Velocity
2 2 1 1 0 -2 -5 -5 -5 -7 -0 -2 -0 1 1 1 3 0 0 2 -2 -1
-2 -1 -0 1 2 -0 -0 -2 -4 -6 -5 -0 -3 -0 0 -2 -2 2 -2 1 5 -6
-5 -1 -1 -1 -2 2 1 -1 -2 -3 -5 -7 2 -0 1 -2 2 -3 1 -2 8 -5
-4 -4 -5 -2 2 -1 -3 2 -1 0 -3 -3 -7 1 -1 -1 -2 -6 -2 2 9 -1
-3 -1 -2 -4 -3 1 -3 3 2 0 -1 -3 -4 0 -2 -5 3 -4 -3 -5 10 6
-5 -3 -5 -7 -2 -1 -3 -0 -1 0 -0 0 1 -1 -1 -1 -1 0 -5 -4 4 -0
0 -1 -2 -1 -2 -3 -2 -1 -0 -2 -2 -1 -1 -1 -1 -1 1 -4 -2 0 -0 -3
-2 -0 0 -1 -1 -1 0 -2 1 -1 -2 -2 -2 1 1 0 -0 -2 -4 -3 -5 -15
-3 -2 -1 -3 -3 -2 -3 -4 -1 -0 0 -2 -4 1 1 2 -0 2 -3 -6 -3 -11
-1 -3 -2 -2 -0 -3 -3 0 -3 -2 1 -4 -4 2 -1 1 -1 1 -2 0 0 -7
-1 -2 -1 0 -0 0 3 -0 -0 -2 -2 -1 -6 -1 -1 -1 1 0 -2 -2 -1 2
3 -0 1 -1 0 1 1 2 -1 -1 -2 -1 -7 0 -3 5 4 -4 -6 -2 -2 -2
0 1 -1 1 0 1 2 -4 1 -3 0 1 -6 -1 -2 5 3 -2 -4 5 -7 8
-1 5 8 4 1 -1 -3 -0 -1 -1 2 0 -1 -2 -1 2 1 1 1 0 -3 -11
Height
1514 1509 1503 1499 1495 1491 1488 1485 1484 1482 1480 1478 1477 1476 1474 1472 1472 1475 1476 1478 1480 1480
1509 1503 1498 1493 1488 1482 1478 1475 1472 1471 1468 1467 1465 1464 1463 1461 1460 1461 1463 1464 1467 1469
1501 1496 1490 1485 1479 1475 1469 1465 1462 1459 1457 1455 1454 1452 1451 1449 1449 1449 1449 1452 1455 1455
1492 1487 1481 1475 1469 1465 1460 1456 1451 1448 1446 1444 1442 1441 1439 1437 1436 1436 1437 1438 1440 1444
1481 1476 1470 1465 1459 1454 1448 1445 1441 1437 1434 1432 1430 1429 1427 1424 1424 1424 1423 1424 1427 1429
1472 1465 1458 1452 1447 1443 1437 1432 1429 1426 1422 1419 1418 1417 1415 1413 1411 1411 1411 1411 1412 1413
1462 1455 1448 1442 1435 1430 1426 1420 1417 1413 1409 1407 1405 1404 1403 1401 1398 1398 1397 1396 1398 1400
1449 1443 1436 1430 1424 1418 1412 1407 1403 1399 1396 1394 1392 1390 1390 1388 1387 1386 1384 1383 1384 1384
1438 1430 1423 1416 1410 1405 1399 1394 1390 1385 1382 1379 1377 1376 1377 1378 1376 1375 1373 1371 1370 1371
1427 1418 1411 1404 1398 1392 1386 1381 1376 1371 1368 1364 1362 1363 1364 1365 1365 1363 1360 1359 1358 1358
1417 1407 1399 1392 1384 1377 1373 1367 1362 1357 1354 1351 1347 1349 1351 1352 1353 1350 1348 1346 1345 1347
1406 1395 1386 1377 1369 1362 1357 1351 1347 1343 1340 1337 1333 1336 1337 1340 1340 1338 1336 1336 1337 1339
1394 1383 1372 1363 1354 1347 1342 1335 1332 1328 1326 1324 1321 1322 1324 1327 1328 1325 1325 1325 1326 1329
1381 1370 1360 1349 1340 1333 1326 1321 1317 1314 1313 1312 1310 1308 1310 1313 1315 1313 1314 1318 1318 1323